QPF
0.00 0.00 0.00 0.00 0.00 0.00 0.01 0.02 0.03 0.02 0.01 0.02 0.04 0.05 0.04 0.05 0.05 0.05 0.05 0.06 0.05 0.04 0.03 0.01 0.01 0.01 0.01 0.01 0.01 0.01 0.01 0.01 0.02 0.02 0.02 0.02 0.04 0.06
0.00 0.00 0.00 0.00 0.00 0.00 0.00 0.01 0.02 0.03 0.02 0.03 0.05 0.07 0.09 0.10 0.10 0.09 0.08 0.08 0.06 0.05 0.03 0.01 0.01 0.01 0.01 0.01 0.00 0.00 0.00 0.00 0.01 0.01 0.01 0.01 0.01 0.02
0.00 0.00 0.00 0.00 0.00 0.00 0.00 0.00 0.01 0.02 0.02 0.03 0.05 0.08 0.12 0.12 0.11 0.11 0.10 0.09 0.07 0.06 0.05 0.03 0.01 0.00 0.00 0.00 0.00 0.00 0.00 0.00 0.00 0.00 0.00 0.01 0.01 0.01
0.00 0.00 0.00 0.00 0.00 0.00 0.00 0.00 0.00 0.01 0.01 0.03 0.05 0.09 0.13 0.14 0.15 0.16 0.13 0.10 0.08 0.07 0.06 0.04 0.02 0.01 0.00 0.00 0.00 0.00 0.00 0.00 0.00 0.00 0.00 0.00 0.00 0.01
0.00 0.00 0.00 0.00 0.00 0.00 0.00 0.00 0.00 0.00 0.01 0.02 0.04 0.09 0.14 0.17 0.15 0.14 0.14 0.11 0.08 0.06 0.05 0.04 0.02 0.01 0.01 0.00 0.00 0.00 0.00 0.00 0.00 0.00 0.00 0.00 0.00 0.00
0.00 0.00 0.00 0.00 0.00 0.00 0.00 0.00 0.00 0.00 0.01 0.01 0.02 0.08 0.15 0.19 0.18 0.14 0.12 0.10 0.08 0.06 0.04 0.03 0.02 0.01 0.01 0.00 0.00 0.00 0.00 0.00 0.00 0.00 0.00 0.00 0.00 0.00
0.00 0.00 0.00 0.00 0.00 0.00 0.00 0.00 0.00 0.00 0.01 0.01 0.02 0.06 0.14 0.20 0.18 0.15 0.14 0.12 0.08 0.05 0.03 0.02 0.01 0.01 0.00 0.00 0.00 0.00 0.00 0.01 0.00 0.01 0.00 0.00 0.00 0.00
0.00 0.00 0.00 0.00 0.00 0.00 0.00 0.00 0.00 0.00 0.00 0.01 0.02 0.04 0.09 0.18 0.25 0.26 0.21 0.13 0.07 0.03 0.02 0.01 0.01 0.01 0.00 0.00 0.01 0.01 0.01 0.01 0.01 0.01 0.01 0.01 0.01 0.01
0.00 0.00 0.00 0.00 0.00 0.00 0.00 0.00 0.00 0.00 0.00 0.00 0.01 0.03 0.06 0.15 0.29 0.30 0.26 0.20 0.12 0.06 0.02 0.01 0.01 0.01 0.01 0.01 0.02 0.01 0.01 0.01 0.01 0.01 0.01 0.01 0.01 0.01
0.00 0.00 0.00 0.00 0.00 0.00 0.00 0.00 0.00 0.00 0.00 0.00 0.01 0.02 0.05 0.12 0.26 0.35 0.37 0.32 0.23 0.12 0.04 0.01 0.01 0.01 0.01 0.02 0.03 0.03 0.02 0.01 0.01 0.01 0.01 0.01 0.01 0.01
0.00 0.00 0.00 0.00 0.00 0.00 0.00 0.00 0.01 0.01 0.01 0.01 0.01 0.03 0.05 0.09 0.22 0.37 0.45 0.43 0.31 0.16 0.05 0.01 0.01 0.01 0.02 0.02 0.03 0.04 0.04 0.03 0.02 0.01 0.01 0.01 0.01 0.01
0.00 0.00 0.00 0.00 0.00 0.00 0.00 0.01 0.01 0.01 0.01 0.01 0.02 0.03 0.06 0.09 0.18 0.29 0.36 0.37 0.30 0.17 0.07 0.02 0.01 0.00 0.01 0.02 0.01 0.02 0.03 0.04 0.04 0.02 0.01 0.01 0.00 0.00
0.01 0.00 0.00 0.00 0.00 0.01 0.01 0.01 0.01 0.02 0.02 0.02 0.02 0.03 0.06 0.10 0.14 0.23 0.30 0.30 0.26 0.17 0.09 0.04 0.02 0.01 0.00 0.01 0.01 0.02 0.01 0.01 0.01 0.02 0.01 0.01 0.00 0.00
0.01 0.01 0.01 0.01 0.01 0.01 0.01 0.02 0.03 0.03 0.04 0.04 0.03 0.03 0.04 0.08 0.13 0.18 0.25 0.30 0.26 0.22 0.17 0.09 0.05 0.02 0.00 0.00 0.00 0.01 0.01 0.01 0.00 0.00 0.00 0.00 0.00 0.00
0.02 0.02 0.02 0.03 0.03 0.04 0.03 0.03 0.04 0.04 0.04 0.04 0.03 0.02 0.02 0.05 0.11 0.19 0.27 0.37 0.35 0.31 0.27 0.16 0.07 0.03 0.01 0.00 0.00 0.00 0.00 0.01 0.00 0.00 0.00 0.00 0.00 0.00
0.03 0.05 0.06 0.06 0.07 0.07 0.07 0.06 0.05 0.06 0.05 0.04 0.04 0.03 0.03 0.06 0.11 0.19 0.29 0.37 0.39 0.37 0.32 0.23 0.11 0.04 0.01 0.00 0.00 0.00 0.00 0.00 0.00 0.00 0.00 0.00 0.00 0.00
0.03 0.06 0.10 0.12 0.11 0.14 0.12 0.10 0.09 0.09 0.08 0.07 0.06 0.04 0.04 0.05 0.09 0.17 0.27 0.31 0.31 0.30 0.29 0.25 0.16 0.07 0.02 0.01 0.00 0.00 0.00 0.00 0.00 0.00 0.00 0.00 0.00 0.00
0.03 0.06 0.12 0.17 0.17 0.19 0.18 0.15 0.13 0.10 0.09 0.09 0.07 0.05 0.04 0.04 0.07 0.15 0.24 0.29 0.27 0.25 0.24 0.21 0.16 0.10 0.04 0.02 0.01 0.00 0.00 0.00 0.00 0.00 0.00 0.00 0.00 0.00
0.04 0.06 0.09 0.13 0.19 0.22 0.18 0.15 0.14 0.12 0.09 0.09 0.07 0.06 0.05 0.04 0.04 0.11 0.19 0.27 0.29 0.26 0.24 0.20 0.14 0.09 0.05 0.02 0.01 0.00 0.00 0.00 0.00 0.00 0.00 0.00 0.00 0.00
0.03 0.04 0.05 0.07 0.13 0.17 0.15 0.12 0.12 0.11 0.10 0.09 0.08 0.06 0.05 0.04 0.04 0.06 0.14 0.22 0.26 0.27 0.27 0.22 0.14 0.09 0.05 0.03 0.01 0.01 0.00 0.00 0.00 0.00 0.00 0.00 0.00 0.00
0.02 0.02 0.02 0.04 0.05 0.06 0.08 0.11 0.12 0.11 0.09 0.08 0.07 0.05 0.04 0.04 0.04 0.04 0.09 0.18 0.23 0.26 0.25 0.23 0.15 0.12 0.10 0.08 0.05 0.03 0.01 0.01 0.00 0.00 0.00 0.00 0.00 0.00
0.02 0.01 0.02 0.02 0.03 0.03 0.05 0.06 0.08 0.09 0.08 0.06 0.05 0.05 0.04 0.04 0.04 0.04 0.05 0.11 0.18 0.23 0.26 0.25 0.22 0.16 0.14 0.12 0.08 0.05 0.03 0.01 0.00 0.00 0.00 0.00 0.00 0.00
0.02 0.01 0.02 0.02 0.02 0.03 0.04 0.05 0.06 0.06 0.06 0.05 0.05 0.04 0.04 0.03 0.04 0.04 0.04 0.06 0.13 0.20 0.27 0.29 0.24 0.18 0.14 0.13 0.11 0.08 0.05 0.02 0.01 0.00 0.00 0.00 0.00 0.00
MSLP
1013.30 1013.33 1013.36 1013.36 1013.29 1013.12 1012.86 1012.50 1012.08 1011.62 1011.16 1010.74 1010.38 1010.10 1009.90 1009.78 1009.73 1009.76 1009.85 1010.02 1010.27 1010.60 1011.02 1011.52 1012.09 1012.69 1013.32 1013.94 1014.54 1015.10 1015.63 1016.12 1016.58 1017.03 1017.48 1017.91 1018.33 1018.73
1013.11 1013.12 1013.14 1013.13 1013.06 1012.91 1012.68 1012.38 1012.02 1011.64 1011.25 1010.88 1010.56 1010.29 1010.08 1009.92 1009.82 1009.79 1009.82 1009.93 1010.13 1010.42 1010.81 1011.27 1011.81 1012.38 1012.97 1013.56 1014.12 1014.65 1015.14 1015.61 1016.06 1016.50 1016.95 1017.38 1017.81 1018.21
1012.75 1012.75 1012.74 1012.72 1012.65 1012.54 1012.36 1012.13 1011.87 1011.58 1011.28 1011.00 1010.74 1010.52 1010.32 1010.16 1010.05 1009.98 1009.98 1010.05 1010.21 1010.46 1010.80 1011.23 1011.71 1012.23 1012.76 1013.28 1013.78 1014.25 1014.70 1015.13 1015.55 1015.98 1016.42 1016.86 1017.30 1017.72
1012.25 1012.22 1012.20 1012.18 1012.13 1012.04 1011.93 1011.78 1011.61 1011.42 1011.23 1011.05 1010.87 1010.70 1010.55 1010.42 1010.32 1010.25 1010.24 1010.30 1010.44 1010.67 1010.98 1011.35 1011.78 1012.23 1012.68 1013.12 1013.53 1013.93 1014.30 1014.68 1015.06 1015.47 1015.90 1016.35 1016.81 1017.25
1011.64 1011.60 1011.57 1011.55 1011.53 1011.48 1011.43 1011.36 1011.27 1011.18 1011.08 1010.98 1010.88 1010.78 1010.69 1010.60 1010.53 1010.50 1010.52 1010.59 1010.74 1010.97 1011.26 1011.60 1011.97 1012.35 1012.72 1013.07 1013.38 1013.68 1013.98 1014.28 1014.62 1015.00 1015.42 1015.87 1016.34 1016.81
1010.97 1010.93 1010.91 1010.90 1010.90 1010.90 1010.89 1010.88 1010.86 1010.84 1010.81 1010.78 1010.74 1010.70 1010.66 1010.63 1010.61 1010.64 1010.70 1010.83 1011.02 1011.28 1011.57 1011.90 1012.24 1012.56 1012.86 1013.11 1013.34 1013.54 1013.75 1013.99 1014.27 1014.61 1015.01 1015.47 1015.95 1016.46
1010.28 1010.24 1010.23 1010.24 1010.27 1010.30 1010.33 1010.36 1010.39 1010.41 1010.42 1010.42 1010.42 1010.42 1010.42 1010.45 1010.50 1010.59 1010.74 1010.94 1011.20 1011.51 1011.84 1012.19 1012.52 1012.81 1013.05 1013.24 1013.40 1013.53 1013.67 1013.84 1014.07 1014.37 1014.75 1015.20 1015.70 1016.22
1009.57 1009.55 1009.56 1009.59 1009.64 1009.70 1009.75 1009.80 1009.84 1009.87 1009.89 1009.91 1009.92 1009.94 1009.98 1010.06 1010.17 1010.34 1010.57 1010.87 1011.22 1011.60 1012.01 1012.40 1012.75 1013.05 1013.28 1013.44 1013.56 1013.64 1013.74 1013.87 1014.06 1014.33 1014.69 1015.13 1015.63 1016.16
1008.86 1008.85 1008.88 1008.93 1008.99 1009.06 1009.13 1009.18 1009.22 1009.24 1009.26 1009.26 1009.27 1009.31 1009.37 1009.48 1009.65 1009.90 1010.22 1010.61 1011.05 1011.53 1012.02 1012.48 1012.89 1013.23 1013.49 1013.67 1013.80 1013.88 1013.97 1014.09 1014.27 1014.52 1014.87 1015.29 1015.78 1016.31
1008.12 1008.12 1008.16 1008.22 1008.30 1008.37 1008.44 1008.49 1008.52 1008.53 1008.53 1008.52 1008.53 1008.56 1008.64 1008.79 1009.01 1009.31 1009.71 1010.18 1010.72 1011.29 1011.87 1012.42 1012.91 1013.33 1013.66 1013.90 1014.08 1014.21 1014.33 1014.48 1014.67 1014.93 1015.27 1015.68 1016.15 1016.67
1007.36 1007.35 1007.39 1007.45 1007.53 1007.61 1007.67 1007.72 1007.74 1007.75 1007.74 1007.73 1007.74 1007.78 1007.88 1008.04 1008.30 1008.65 1009.10 1009.64 1010.25 1010.90 1011.56 1012.20 1012.79 1013.30 1013.73 1014.07 1014.34 1014.56 1014.75 1014.96 1015.20 1015.48 1015.83 1016.23 1016.68 1017.17
1006.56 1006.54 1006.56 1006.61 1006.68 1006.75 1006.82 1006.87 1006.90 1006.92 1006.93 1006.93 1006.96 1007.01 1007.13 1007.32 1007.60 1007.98 1008.47 1009.04 1009.69 1010.40 1011.12 1011.84 1012.51 1013.13 1013.67 1014.13 1014.52 1014.85 1015.15 1015.44 1015.74 1016.07 1016.44 1016.84 1017.28 1017.73
1005.76 1005.71 1005.70 1005.73 1005.78 1005.84 1005.91 1005.97 1006.02 1006.06 1006.10 1006.14 1006.20 1006.30 1006.44 1006.65 1006.95 1007.34 1007.83 1008.42 1009.09 1009.81 1010.58 1011.35 1012.10 1012.81 1013.46 1014.04 1014.55 1015.01 1015.43 1015.82 1016.20 1016.58 1016.98 1017.39 1017.81 1018.25
1005.00 1004.91 1004.85 1004.84 1004.86 1004.90 1004.96 1005.03 1005.11 1005.19 1005.28 1005.37 1005.49 1005.62 1005.80 1006.04 1006.35 1006.74 1007.22 1007.79 1008.45 1009.17 1009.95 1010.75 1011.56 1012.34 1013.09 1013.78 1014.41 1014.99 1015.52 1016.01 1016.47 1016.91 1017.34 1017.77 1018.19 1018.61
1004.30 1004.16 1004.06 1003.99 1003.96 1003.97 1004.02 1004.10 1004.20 1004.33 1004.46 1004.62 1004.79 1004.98 1005.20 1005.46 1005.77 1006.16 1006.62 1007.16 1007.79 1008.50 1009.27 1010.08 1010.92 1011.75 1012.57 1013.36 1014.09 1014.77 1015.40 1015.97 1016.50 1017.00 1017.47 1017.91 1018.34 1018.76
1003.72 1003.52 1003.36 1003.23 1003.14 1003.11 1003.13 1003.20 1003.32 1003.47 1003.66 1003.86 1004.08 1004.32 1004.58 1004.87 1005.19 1005.57 1006.01 1006.52 1007.12 1007.80 1008.55 1009.37 1010.22 1011.09 1011.96 1012.81 1013.62 1014.37 1015.07 1015.71 1016.30 1016.84 1017.34 1017.80 1018.25 1018.68
1003.25 1003.00 1002.78 1002.58 1002.43 1002.34 1002.32 1002.36 1002.48 1002.64 1002.85 1003.10 1003.36 1003.64 1003.93 1004.24 1004.58 1004.95 1005.38 1005.87 1006.45 1007.11 1007.84 1008.65 1009.51 1010.40 1011.31 1012.20 1013.05 1013.85 1014.60 1015.28 1015.91 1016.47 1017.00 1017.49 1017.95 1018.41
1002.87 1002.59 1002.31 1002.05 1001.84 1001.68 1001.61 1001.62 1001.70 1001.86 1002.07 1002.33 1002.62 1002.92 1003.24 1003.57 1003.92 1004.30 1004.73 1005.22 1005.79 1006.44 1007.17 1007.98 1008.85 1009.76 1010.68 1011.59 1012.47 1013.30 1014.06 1014.77 1015.41 1015.99 1016.54 1017.04 1017.53 1018.02
1002.55 1002.24 1001.92 1001.61 1001.34 1001.13 1001.00 1000.96 1001.01 1001.14 1001.34 1001.59 1001.88 1002.20 1002.53 1002.88 1003.24 1003.64 1004.08 1004.59 1005.17 1005.83 1006.58 1007.40 1008.28 1009.20 1010.13 1011.05 1011.94 1012.77 1013.54 1014.25 1014.90 1015.49 1016.05 1016.57 1017.09 1017.61
1002.21 1001.90 1001.56 1001.22 1000.92 1000.67 1000.49 1000.41 1000.41 1000.51 1000.68 1000.92 1001.20 1001.51 1001.85 1002.20 1002.59 1003.01 1003.48 1004.01 1004.62 1005.31 1006.08 1006.92 1007.82 1008.75 1009.69 1010.61 1011.50 1012.33 1013.09 1013.80 1014.44 1015.04 1015.60 1016.15 1016.69 1017.24
1001.81 1001.51 1001.18 1000.84 1000.52 1000.25 1000.05 999.94 999.92 999.98 1000.12 1000.33 1000.60 1000.90 1001.24 1001.60 1002.00 1002.45 1002.95 1003.52 1004.16 1004.89 1005.69 1006.56 1007.48 1008.42 1009.36 1010.28 1011.16 1011.97 1012.73 1013.42 1014.06 1014.66 1015.23 1015.79 1016.36 1016.93
1001.29 1001.02 1000.72 1000.41 1000.11 999.86 999.67 999.55 999.52 999.56 999.69 999.88 1000.12 1000.41 1000.74 1001.11 1001.53 1002.00 1002.53 1003.13 1003.81 1004.57 1005.41 1006.30 1007.22 1008.17 1009.11 1010.02 1010.88 1011.68 1012.42 1013.11 1013.74 1014.34 1014.92 1015.50 1016.08 1016.68
1000.64 1000.42 1000.17 999.91 999.67 999.46 999.30 999.21 999.19 999.24 999.36 999.55 999.78 1000.06 1000.39 1000.76 1001.19 1001.67 1002.22 1002.85 1003.55 1004.34 1005.19 1006.09 1007.02 1007.96 1008.89 1009.78 1010.62 1011.41 1012.13 1012.80 1013.43 1014.03 1014.62 1015.21 1015.80 1016.41
Thickness
5612 5614 5616 5619 5623 5627 5631 5635 5638 5644 5654 5665 5673 5681 5685 5690 5695 5699 5703 5707 5709 5712 5714 5715 5717 5718 5718 5718 5718 5717 5716 5716 5715 5715 5714 5713 5713 5712
5600 5603 5606 5609 5613 5617 5622 5627 5631 5635 5642 5653 5661 5668 5675 5682 5687 5692 5696 5700 5703 5706 5708 5710 5712 5714 5714 5715 5715 5715 5714 5714 5714 5713 5713 5712 5711 5711
5590 5593 5596 5599 5602 5607 5612 5617 5622 5627 5633 5643 5650 5658 5665 5672 5677 5682 5686 5691 5695 5698 5701 5704 5706 5708 5709 5710 5711 5712 5712 5712 5711 5711 5711 5710 5709 5709
5581 5583 5586 5589 5592 5596 5601 5607 5612 5619 5625 5632 5639 5647 5655 5661 5666 5671 5675 5679 5684 5688 5692 5695 5698 5701 5703 5705 5706 5707 5708 5708 5709 5709 5709 5708 5707 5707
5573 5574 5576 5578 5582 5586 5590 5596 5602 5609 5615 5622 5629 5636 5644 5651 5656 5659 5663 5667 5672 5676 5681 5685 5689 5693 5696 5698 5700 5702 5704 5705 5705 5706 5706 5706 5705 5705
5566 5566 5567 5569 5572 5576 5580 5585 5591 5597 5604 5612 5619 5625 5633 5641 5646 5650 5652 5656 5660 5665 5670 5675 5679 5684 5688 5691 5694 5697 5699 5700 5702 5702 5703 5703 5703 5702
5558 5558 5558 5560 5562 5565 5570 5575 5580 5586 5593 5601 5609 5615 5623 5631 5638 5643 5645 5647 5650 5655 5660 5664 5670 5674 5678 5683 5687 5691 5694 5696 5697 5698 5699 5699 5699 5699
5550 5549 5549 5550 5553 5556 5560 5565 5569 5574 5582 5589 5598 5606 5614 5622 5629 5634 5638 5639 5642 5647 5651 5653 5659 5664 5669 5675 5680 5684 5688 5691 5693 5694 5694 5695 5694 5694
5541 5540 5540 5542 5542 5544 5548 5553 5558 5564 5571 5579 5588 5597 5605 5615 5621 5626 5631 5635 5638 5641 5642 5644 5648 5654 5659 5665 5671 5677 5681 5685 5687 5688 5689 5689 5689 5688
5532 5530 5530 5530 5530 5531 5534 5539 5545 5552 5559 5568 5578 5587 5595 5604 5613 5620 5625 5627 5628 5631 5636 5636 5638 5643 5648 5654 5662 5668 5674 5678 5680 5682 5682 5682 5682 5681
5523 5521 5519 5519 5519 5518 5521 5526 5532 5538 5544 5553 5563 5574 5584 5593 5602 5608 5613 5618 5620 5623 5628 5632 5631 5634 5637 5643 5650 5658 5665 5669 5671 5674 5675 5675 5674 5673
5514 5512 5510 5508 5507 5506 5508 5513 5519 5526 5531 5540 5549 5560 5571 5582 5591 5601 5609 5613 5616 5618 5621 5626 5626 5629 5630 5632 5639 5646 5652 5657 5661 5664 5666 5667 5667 5666
5507 5505 5502 5499 5496 5495 5495 5501 5507 5511 5517 5526 5537 5549 5560 5571 5583 5593 5603 5610 5614 5618 5621 5623 5623 5626 5631 5627 5629 5635 5642 5646 5650 5652 5655 5657 5659 5660
5501 5499 5496 5491 5487 5485 5485 5488 5491 5495 5504 5514 5526 5539 5551 5564 5576 5586 5595 5603 5610 5616 5618 5621 5622 5623 5625 5625 5624 5625 5630 5637 5642 5645 5646 5647 5649 5649
5496 5493 5489 5484 5480 5478 5478 5479 5481 5487 5496 5507 5520 5533 5545 5556 5565 5575 5584 5592 5599 5604 5609 5614 5619 5619 5624 5627 5624 5623 5625 5628 5633 5637 5639 5641 5642 5642
5492 5489 5485 5481 5477 5475 5475 5476 5478 5483 5491 5502 5514 5524 5533 5543 5555 5567 5577 5585 5590 5594 5600 5606 5611 5616 5618 5622 5625 5624 5626 5626 5627 5630 5633 5634 5635 5636
5488 5487 5485 5482 5479 5477 5476 5477 5478 5481 5487 5496 5506 5516 5526 5537 5549 5560 5570 5579 5586 5591 5593 5596 5601 5606 5613 5618 5620 5622 5623 5623 5624 5626 5628 5628 5629 5630
5488 5488 5487 5484 5483 5482 5481 5481 5482 5485 5490 5497 5505 5515 5524 5534 5544 5554 5565 5575 5583 5588 5591 5593 5595 5598 5602 5605 5614 5618 5619 5620 5620 5621 5624 5625 5625 5624
5491 5490 5488 5487 5486 5485 5485 5486 5488 5490 5494 5499 5507 5515 5523 5531 5541 5551 5561 5570 5578 5584 5588 5591 5596 5602 5605 5607 5605 5613 5617 5616 5615 5616 5618 5621 5622 5622
5494 5494 5492 5491 5490 5490 5491 5491 5493 5494 5498 5503 5509 5515 5523 5531 5539 5550 5559 5569 5576 5581 5585 5588 5595 5604 5610 5611 5605 5606 5610 5614 5615 5613 5613 5613 5615 5615
5498 5497 5496 5496 5495 5496 5496 5496 5497 5499 5502 5506 5512 5518 5524 5532 5541 5550 5559 5565 5573 5579 5584 5588 5592 5597 5601 5600 5598 5598 5601 5605 5611 5612 5611 5611 5611 5611
5501 5501 5501 5501 5501 5501 5501 5501 5502 5504 5506 5510 5515 5520 5526 5534 5542 5550 5557 5565 5572 5579 5582 5584 5585 5589 5595 5599 5599 5596 5596 5597 5600 5604 5608 5613 5614 5612
5506 5505 5506 5506 5506 5506 5507 5507 5508 5510 5513 5515 5518 5523 5528 5534 5542 5549 5556 5562 5569 5574 5578 5579 5581 5585 5590 5594 5594 5593 5592 5593 5595 5598 5599 5603 5607 5610